TimeCDT,TemperatureF,Dew PointF,Humidity,Sea Level PressureIn,VisibilityMPH,Wind Direction,Wind SpeedMPH,Gust SpeedMPH,PrecipitationIn,Events,Conditions,WindDirDegrees,DateUTC
12:15 AM,68.0,53.6,60,30.01,10.0,WNW,8.1,-,N/A,,Partly Cloudy,300,2013-06-18 05:15:00
12:35 AM,66.2,55.4,68,30.02,10.0,WNW,9.2,-,N/A,,Clear,300,2013-06-18 05:35:00
12:55 AM,68.0,55.4,64,30.02,10.0,NW,9.2,-,N/A,,Partly Cloudy,310,2013-06-18 05:55:00
1:15 AM,68.0,55.4,64,30.01,10.0,NW,9.2,-,N/A,,Clear,310,2013-06-18 06:15:00
1:35 AM,66.2,55.4,68,30.01,10.0,WNW,8.1,-,N/A,,Clear,300,2013-06-18 06:35:00
1:55 AM,64.4,55.4,73,30.00,10.0,WNW,6.9,-,N/A,,Partly Cloudy,300,2013-06-18 06:55:00
2:15 AM,64.4,55.4,73,30.00,10.0,WNW,8.1,-,N/A,,Clear,300,2013-06-18 07:15:00
2:35 AM,64.4,55.4,73,30.00,10.0,WNW,6.9,-,N/A,,Clear,300,2013-06-18 07:35:00
2:55 AM,62.6,55.4,77,30.01,10.0,West,8.1,-,N/A,,Partly Cloudy,280,2013-06-18 07:55:00
3:15 AM,64.4,55.4,73,30.01,10.0,WNW,8.1,-,N/A,,Partly Cloudy,290,2013-06-18 08:15:00
3:35 AM,64.4,55.4,73,30.01,10.0,NW,8.1,-,N/A,,Partly Cloudy,320,2013-06-18 08:35:00
3:55 AM,64.4,55.4,73,30.01,10.0,NW,5.8,-,N/A,,Scattered Clouds,320,2013-06-18 08:55:00
4:15 AM,64.4,55.4,73,30.02,10.0,NW,6.9,-,N/A,,Scattered Clouds,310,2013-06-18 09:15:00
4:35 AM,64.4,55.4,73,30.02,10.0,NNW,6.9,-,N/A,,Mostly Cloudy,330,2013-06-18 09:35:00
4:55 AM,64.4,55.4,73,30.02,10.0,NNW,5.8,-,N/A,,Partly Cloudy,330,2013-06-18 09:55:00
5:15 AM,62.6,55.4,77,30.02,10.0,NNW,8.1,-,N/A,,Clear,340,2013-06-18 10:15:00
5:35 AM,62.6,55.4,77,30.02,10.0,NNW,9.2,-,N/A,,Scattered Clouds,340,2013-06-18 10:35:00
5:55 AM,62.6,55.4,77,30.02,10.0,North,9.2,-,N/A,,Mostly Cloudy,360,2013-06-18 10:55:00
6:15 AM,64.4,55.4,73,30.02,10.0,North,6.9,-,N/A,,Overcast,350,2013-06-18 11:15:00
6:35 AM,64.4,55.4,73,30.02,10.0,North,10.4,-,N/A,,Scattered Clouds,360,2013-06-18 11:35:00
6:55 AM,64.4,55.4,73,30.04,10.0,North,12.7,-,N/A,,Clear,10,2013-06-18 11:55:00
7:15 AM,64.4,57.2,77,30.04,10.0,NNE,10.4,-,N/A,,Clear,20,2013-06-18 12:15:00
7:35 AM,64.4,57.2,77,30.04,10.0,NE,8.1,-,N/A,,Clear,40,2013-06-18 12:35:00
7:55 AM,66.2,57.2,73,30.04,10.0,NE,10.4,-,N/A,,Clear,50,2013-06-18 12:55:00
8:15 AM,66.2,59.0,78,30.05,10.0,NE,10.4,-,N/A,,Clear,40,2013-06-18 13:15:00
8:35 AM,68.0,59.0,73,30.05,10.0,NE,9.2,-,N/A,,Clear,50,2013-06-18 13:35:00
8:55 AM,68.0,59.0,73,30.05,10.0,NE,5.8,-,N/A,,Clear,50,2013-06-18 13:55:00
9:15 AM,69.8,60.8,73,30.06,10.0,ENE,4.6,-,N/A,,Clear,70,2013-06-18 14:15:00
9:35 AM,69.8,60.8,73,30.06,10.0,East,5.8,-,N/A,,Clear,80,2013-06-18 14:35:00
9:55 AM,69.8,59.0,68,30.06,10.0,Calm,Calm,-,N/A,,Clear,0,2013-06-18 14:55:00
10:15 AM,71.6,59.0,64,30.05,10.0,Variable,4.6,-,N/A,,Clear,0,2013-06-18 15:15:00
10:35 AM,73.4,59.0,61,30.05,10.0,NNE,9.2,-,N/A,,Clear,30,2013-06-18 15:35:00
10:55 AM,73.4,57.2,57,30.05,10.0,Variable,4.6,-,N/A,,Clear,0,2013-06-18 15:55:00
11:15 AM,75.2,55.4,50,30.05,10.0,North,8.1,13.8,N/A,,Clear,350,2013-06-18 16:15:00
11:35 AM,75.2,53.6,47,30.05,10.0,North,11.5,-,N/A,,Clear,350,2013-06-18 16:35:00
11:55 AM,77.0,55.4,47,30.05,10.0,NNE,9.2,16.1,N/A,,Clear,30,2013-06-18 16:55:00
12:15 PM,77.0,55.4,47,30.05,10.0,NNE,9.2,-,N/A,,Clear,20,2013-06-18 17:15:00
12:35 PM,75.2,55.4,50,30.05,10.0,Variable,5.8,12.7,N/A,,Clear,0,2013-06-18 17:35:00
12:55 PM,77.0,55.4,47,30.05,10.0,ENE,10.4,-,N/A,,Clear,70,2013-06-18 17:55:00
1:15 PM,77.0,55.4,47,30.04,10.0,ENE,8.1,-,N/A,,Partly Cloudy,60,2013-06-18 18:15:00
1:35 PM,77.0,55.4,47,30.04,10.0,NE,9.2,-,N/A,,Scattered Clouds,50,2013-06-18 18:35:00
1:55 PM,77.0,55.4,47,30.04,10.0,East,6.9,-,N/A,,Scattered Clouds,80,2013-06-18 18:55:00
2:15 PM,77.0,55.4,47,30.03,10.0,Variable,5.8,16.1,N/A,,Clear,0,2013-06-18 19:15:00
2:35 PM,77.0,55.4,47,30.03,10.0,ENE,10.4,-,N/A,,Clear,70,2013-06-18 19:35:00
2:55 PM,78.8,53.6,42,30.03,10.0,Variable,4.6,12.7,N/A,,Clear,0,2013-06-18 19:55:00
3:15 PM,78.8,53.6,42,30.02,10.0,East,6.9,13.8,N/A,,Partly Cloudy,90,2013-06-18 20:15:00
3:35 PM,78.8,53.6,42,30.02,10.0,Variable,6.9,15.0,N/A,,Partly Cloudy,0,2013-06-18 20:35:00
3:55 PM,78.8,53.6,42,30.02,10.0,NE,6.9,12.7,N/A,,Clear,50,2013-06-18 20:55:00
4:15 PM,78.8,53.6,42,30.01,10.0,ENE,8.1,15.0,N/A,,Clear,70,2013-06-18 21:15:00
4:35 PM,78.8,53.6,42,30.01,10.0,Calm,Calm,-,N/A,,Clear,0,2013-06-18 21:35:00
4:55 PM,78.8,53.6,42,30.01,10.0,NE,9.2,-,N/A,,Clear,40,2013-06-18 21:55:00
5:15 PM,78.8,53.6,42,30.01,10.0,NE,4.6,-,N/A,,Clear,40,2013-06-18 22:15:00
5:35 PM,78.8,53.6,42,30.00,10.0,ENE,6.9,12.7,N/A,,Clear,60,2013-06-18 22:35:00
5:55 PM,78.8,51.8,39,30.00,10.0,NE,6.9,-,N/A,,Clear,40,2013-06-18 22:55:00
6:15 PM,78.8,53.6,42,29.99,10.0,NNE,5.8,-,N/A,,Clear,30,2013-06-18 23:15:00
6:35 PM,78.8,51.8,39,29.99,10.0,NE,6.9,-,N/A,,Clear,40,2013-06-18 23:35:00
6:55 PM,78.8,53.6,42,29.99,10.0,ENE,8.1,-,N/A,,Clear,60,2013-06-18 23:55:00
7:15 PM,78.8,51.8,39,29.99,10.0,SSE,4.6,-,N/A,,Clear,150,2013-06-19 00:15:00
7:35 PM,78.8,53.6,42,29.99,10.0,ESE,8.1,-,N/A,,Clear,110,2013-06-19 00:35:00
7:55 PM,77.0,53.6,44,29.99,10.0,East,8.1,-,N/A,,Clear,90,2013-06-19 00:55:00
8:15 PM,77.0,51.8,41,29.99,10.0,East,8.1,-,N/A,,Clear,80,2013-06-19 01:15:00
8:35 PM,75.2,53.6,47,29.99,10.0,East,8.1,-,N/A,,Clear,80,2013-06-19 01:35:00
8:55 PM,73.4,55.4,53,29.99,10.0,East,5.8,-,N/A,,Clear,80,2013-06-19 01:55:00
9:15 PM,71.6,55.4,57,30.00,10.0,East,6.9,-,N/A,,Clear,80,2013-06-19 02:15:00
9:35 PM,71.6,55.4,57,30.00,10.0,East,5.8,-,N/A,,Clear,100,2013-06-19 02:35:00
9:55 PM,69.8,55.4,60,30.00,10.0,East,8.1,-,N/A,,Clear,90,2013-06-19 02:55:00
10:15 PM,69.8,55.4,60,30.01,10.0,East,5.8,-,N/A,,Clear,90,2013-06-19 03:15:00
10:35 PM,69.8,55.4,60,30.01,10.0,East,8.1,-,N/A,,Clear,90,2013-06-19 03:35:00
10:55 PM,69.8,53.6,56,30.01,10.0,East,5.8,-,N/A,,Clear,80,2013-06-19 03:55:00
11:15 PM,68.0,55.4,64,30.01,10.0,East,8.1,-,N/A,,Clear,80,2013-06-19 04:15:00
11:35 PM,68.0,55.4,64,30.01,10.0,East,6.9,-,N/A,,Clear,90,2013-06-19 04:35:00
11:55 PM,68.0,55.4,64,30.02,10.0,East,4.6,-,N/A,,Clear,100,2013-06-19 04:55:00